[[{"header":{"parameterUnit":"m.s-1","parameterCategory":1,"la1":30.2991,"la2":30.254,"lo1":-89.0895,"lo2":-89.0444,"dy":0.0017,"dx":0.0017,"nx":28,"ny":28,"refTime":"2025-03-18T09:00:00:Z","depth":0,"parameterNumber":2,"parameterNumberName":"U-component_of_WINDS"},"data":[0,0,0,0,0,0,0,0,0,0,0,0,0,0,0,0,0,0,0,0,0,0,0,0,0,0,0,0,0,0,0,0,0,0,0,0,0,0,0,0,0,0,0,0,0,0,0,0,0,0,0,0,0,0,0,0,0,0,1.6396,1.6396,0,1.6417,1.6417,1.6417,1.6401,1.64,1.64,1.6399,1.6418,1.6419,1.6421,0,0,0,0,0,0,0,0,0,0,0,0,0,1.634,1.6341,1.6396,1.6396,1.6397,1.6417,1.6417,1.6417,1.6401,1.64,1.6399,1.6399,1.6418,1.6419,1.6421,0,0,0,0,0,0,0,0,0,0,0,0,0,1.6363,1.6341,1.6396,1.6391,1.6391,1.6417,1.6417,1.6417,1.6401,1.64,1.6399,1.6398,1.6417,1.6419,1.6421,1.6452,0,0,1.6426,1.6427,0,0,0,0,0,0,0,0,1.6361,1.6365,1.6392,1.6391,1.6391,1.6405,1.6404,1.6429,1.6401,1.6397,1.6399,1.6398,1.6415,1.6417,1.6423,1.6453,1.6454,1.6426,1.6427,1.6428,1.6429,0,0,0,0,0,0,0,1.636,1.6364,1.6404,1.6392,1.6392,1.6387,1.6389,1.6409,1.6411,1.6397,1.6396,1.6399,1.6414,1.6421,1.6423,1.6454,1.6426,1.6428,1.6429,1.643,1.6508,1.6509,0,0,0,0,0,0,1.6359,1.6363,1.6403,1.6405,1.6374,1.6389,1.6391,1.6402,1.6411,1.6412,1.64,1.6398,1.6418,1.6421,1.6424,1.6459,1.6428,1.643,1.6431,1.6507,1.6509,1.651,0,0,0,0,0,0,1.6358,1.6363,1.6403,1.6383,1.6388,1.6391,1.6403,1.6403,1.6409,1.6413,1.6413,1.6406,1.6418,1.6421,1.6445,1.6459,1.643,1.6432,1.6506,1.6508,1.6509,1.6531,0,0,0,0,0,0,1.6356,1.6363,1.6375,1.6384,1.6389,1.6424,1.6404,1.6404,1.6412,1.641,1.6419,1.642,1.6417,1.6442,1.6446,1.6461,1.6433,1.6505,1.6507,1.6509,1.6529,1.6533,1.6537,0,0,0,0,0,1.6355,1.6381,1.6376,1.6381,1.6405,1.6425,1.6428,1.6426,1.6414,1.6426,1.6428,1.6419,1.6457,1.6445,1.6449,1.6465,1.6504,1.6506,1.6509,1.6527,1.6532,1.6537,0,0,0,0,0,0,1.6374,1.6382,1.6377,1.6407,1.6416,1.6423,1.6438,1.6431,1.6443,1.6441,1.6436,1.6438,1.6463,1.6466,1.6452,1.6494,1.6479,1.6482,1.6491,1.6496,1.65,1.6498,1.6435,0,0,0,0,0,1.6382,1.6399,1.6404,1.643,1.6435,1.6436,1.6444,1.6441,1.645,1.6453,1.6457,1.6465,1.6479,1.6488,1.6501,1.653,1.653,1.6543,1.6546,1.655,1.6552,1.6566,1.657,1.6518,1.6518,1.6518,0,0,1.6399,1.6405,1.6416,1.6434,1.6441,1.6456,1.6439,1.6457,1.6468,1.6456,1.6478,1.6481,1.6489,1.6515,1.6527,1.6519,1.6567,1.6553,1.6555,1.6556,1.6568,1.6573,1.6578,1.6519,1.6519,1.6519,0,0,1.6436,1.6444,1.6465,1.6471,1.6481,1.6481,1.6486,1.6494,1.6495,1.6517,1.6508,1.6521,1.6545,1.655,1.6557,1.6594,1.6586,1.6599,1.6618,1.6632,1.6636,1.6639,1.6651,1.6655,1.6601,1.6601,1.6602,0,1.6456,1.648,1.6477,1.6495,1.6502,1.6492,1.6512,1.6519,1.6532,1.6537,1.6528,1.6556,1.6562,1.6587,1.6596,1.6602,1.6607,1.6597,1.6635,1.6639,1.6642,1.6653,1.6658,1.6603,1.6603,1.6603,1.6602,0,1.6501,1.6518,1.6534,1.6547,1.6556,1.6575,1.6574,1.6584,1.6579,1.658,1.6601,1.6607,1.662,1.6626,1.6622,1.6651,1.6645,1.6636,1.662,1.6649,1.6659,1.6663,1.6605,1.6604,1.6604,1.6604,0,0,1.6553,1.6562,1.6568,1.6572,1.6581,1.6594,1.6612,1.6624,1.6632,1.6641,1.6654,1.6674,1.6665,1.6672,1.6669,1.668,1.6707,1.6669,1.6669,1.6675,1.6737,1.6742,1.6747,1.6702,1.6703,1.6704,1.6735,0,1.6589,1.6621,1.6618,1.6647,1.6661,1.6651,1.6666,1.6672,1.6673,1.6684,1.6685,1.6698,1.6686,1.669,1.6701,1.6702,1.6719,1.67,1.6713,1.6714,1.671,1.6753,1.676,1.6789,1.6739,1.674,1.6741,0,1.6637,1.6646,1.6677,1.6682,1.6687,1.6701,1.6711,1.6723,1.6729,1.6729,1.6735,1.673,1.6746,1.673,1.6752,1.6738,1.6744,1.6745,1.6746,1.6746,1.6728,1.6753,1.6799,1.6803,1.6747,1.6747,1.6746,0,1.6668,1.669,1.671,1.6714,1.6721,1.673,1.6734,1.6739,1.6746,1.6755,1.6759,1.6769,1.6775,1.6782,1.6779,1.6768,1.6801,1.6785,1.6799,1.6799,1.6806,1.6805,1.6852,1.6812,1.6812,1.6812,1.6812,0,1.6709,1.6727,1.6724,1.6736,1.6756,1.6752,1.6771,1.6773,1.6778,1.6789,1.6781,1.6792,1.6788,1.6798,1.6796,1.6813,1.6816,1.6815,1.6814,1.6815,1.6815,1.6817,1.6814,1.6813,1.6813,1.6812,1.6812,0,1.6747,1.6746,1.6767,1.6771,1.6772,1.6787,1.679,1.6801,1.68,1.6815,1.6818,1.6817,1.6829,1.6826,1.6839,1.6838,1.6858,1.6856,1.6856,1.6855,1.6869,1.6867,1.6918,1.6923,1.6881,1.6882,1.6882,0,1.6772,1.6786,1.6791,1.6798,1.6802,1.6814,1.682,1.6816,1.6823,1.6831,1.684,1.6851,1.6859,1.6878,1.6878,1.6888,1.6884,1.6901,1.6885,1.6885,1.6882,1.688,1.6881,1.6904,1.6904,1.6904,1.6905,0,1.6816,1.6814,1.6825,1.6834,1.6842,1.6849,1.6856,1.6862,1.6858,1.6866,1.6878,1.6884,1.6897,1.6907,1.6915,1.6917,1.691,1.691,1.6913,1.6914,1.6913,1.6912,1.6863,1.6908,1.6908,1.6908,1.6908,1.6907,1.6848,1.6858,1.6863,1.6874,1.6878,1.6884,1.6894,1.6894,1.6904,1.6913,1.691,1.6923,1.6927,1.6937,1.6941,1.695,1.6943,1.6949,1.695,1.6951,1.6952,1.6913,1.6952,1.6951,1.6951,1.6951,1.6951,0,1.6889,1.6891,1.6901,1.691,1.6918,1.6911,1.6917,1.6924,1.6935,1.694,1.6948,1.696,1.697,1.697,1.6979,1.6986,1.6982,1.6988,1.6987,1.6987,1.6958,1.6953,1.699,1.699,1.699,1.699,1.699,1.699,1.6912,1.6929,1.6928,1.6946,1.6948,1.696,1.6964,1.6969,1.6972,1.6986,1.6994,1.6994,1.6997,1.7005,1.7013,1.7013,1.7016,1.7022,1.702,1.6993,1.6989,1.6985,1.6981,1.7023,1.7023,1.7048,1.7049,1.7049]},{"header":{"parameterUnit":"m.s-1","parameterCategory":1,"la1":30.2991,"la2":30.254,"lo1":-89.0895,"lo2":-89.0444,"dy":0.0017,"dx":0.0017,"nx":28,"ny":28,"refTime":"2025-03-18T09:00:00:Z","depth":0,"parameterNumber":3,"parameterNumberName":"V-component_of_WINDS"},"data":[0,0,0,0,0,0,0,0,0,0,0,0,0,0,0,0,0,0,0,0,0,0,0,0,0,0,0,0,0,0,0,0,0,0,0,0,0,0,0,0,0,0,0,0,0,0,0,0,0,0,0,0,0,0,0,0,0,0,6.7029,6.7029,0,6.7016,6.7016,6.7016,6.6932,6.693,6.6928,6.6926,6.6913,6.6914,6.6916,0,0,0,0,0,0,0,0,0,0,0,0,0,6.6982,6.6983,6.7029,6.7029,6.7029,6.7016,6.7016,6.7015,6.6932,6.693,6.6928,6.6925,6.6912,6.6914,6.6916,0,0,0,0,0,0,0,0,0,0,0,0,0,6.6989,6.6984,6.7029,6.6986,6.6982,6.7016,6.7016,6.7015,6.6933,6.693,6.6927,6.6924,6.6912,6.6914,6.6916,6.6991,0,0,6.6923,6.6924,0,0,0,0,0,0,0,0,6.6989,6.6991,6.6992,6.6989,6.6984,6.6972,6.6994,6.7007,6.6934,6.6951,6.6926,6.6923,6.6935,6.6935,6.694,6.6991,6.699,6.6924,6.6925,6.6926,6.6927,0,0,0,0,0,0,0,6.6988,6.6991,6.7024,6.6992,6.6987,6.6967,6.6964,6.6996,6.6961,6.695,6.6944,6.6943,6.6932,6.6938,6.6939,6.699,6.6924,6.6926,6.6927,6.6928,6.7102,6.7105,0,0,0,0,0,0,6.6994,6.6991,6.7024,6.7023,6.6979,6.697,6.6967,6.6979,6.696,6.6954,6.6946,6.6939,6.6935,6.6936,6.6938,6.7024,6.6926,6.6928,6.6929,6.7099,6.7103,6.7106,0,0,0,0,0,0,6.6993,6.6998,6.7025,6.7006,6.7007,6.6974,6.6988,6.6981,6.6986,6.6957,6.695,6.6958,6.6933,6.6935,6.6979,6.7022,6.6929,6.6931,6.7095,6.71,6.7104,6.7197,0,0,0,0,0,0,6.6992,6.6998,6.7026,6.7007,6.7009,6.7066,6.6991,6.6983,6.699,6.6981,6.6966,6.6961,6.6931,6.6976,6.6981,6.7024,6.6933,6.7091,6.7097,6.7103,6.719,6.7205,6.7217,0,0,0,0,0,6.6991,6.7053,6.7028,6.7032,6.7043,6.7068,6.7069,6.7033,6.6994,6.7022,6.7003,6.6961,6.7017,6.6981,6.6986,6.703,6.7088,6.7095,6.7102,6.7184,6.7202,6.7217,0,0,0,0,0,0,6.7078,6.7049,6.7021,6.7079,6.7077,6.7054,6.7088,6.7053,6.7062,6.7054,6.7009,6.7006,6.7057,6.7048,6.7008,6.7102,6.7045,6.7054,6.7106,6.7122,6.7135,6.7136,6.6935,0,0,0,0,0,6.7104,6.7126,6.71,6.7154,6.7154,6.7122,6.7131,6.7104,6.71,6.7098,6.7083,6.7081,6.7097,6.7109,6.7123,6.7189,6.7184,6.7222,6.7235,6.7247,6.7254,6.7288,6.7304,6.713,6.713,6.713,0,0,6.7157,6.7145,6.7162,6.7171,6.7166,6.719,6.7121,6.715,6.7168,6.7103,6.7143,6.7132,6.7126,6.7181,6.7205,6.7176,6.7302,6.7256,6.7265,6.7267,6.7297,6.7314,6.7329,6.7135,6.7134,6.7133,0,0,6.7267,6.726,6.7303,6.73,6.7293,6.7272,6.7282,6.7265,6.7255,6.7295,6.7247,6.7267,6.7298,6.7295,6.7298,6.7409,6.737,6.7415,6.7485,6.7518,6.7532,6.7544,6.7583,6.7597,6.7423,6.7423,6.7423,0,6.7334,6.7369,6.733,6.7362,6.7368,6.731,6.7353,6.7352,6.7351,6.7356,6.7323,6.736,6.7352,6.7406,6.7433,6.7437,6.7448,6.7415,6.7533,6.7545,6.7555,6.7592,6.7607,6.7428,6.7428,6.7427,6.7427,0,6.7452,6.7477,6.7513,6.7513,6.7523,6.7561,6.7527,6.7542,6.7514,6.7496,6.7537,6.7526,6.7537,6.7547,6.752,6.7597,6.7579,6.7541,6.7483,6.7578,6.7611,6.7625,6.7436,6.7434,6.7432,6.7431,0,0,6.7615,6.7593,6.7607,6.7606,6.7595,6.7614,6.765,6.766,6.7673,6.7675,6.7703,6.773,6.7694,6.7698,6.767,6.77,6.7787,6.7657,6.7657,6.7681,6.7871,6.79,6.7916,6.7763,6.7765,6.7767,6.7871,0,6.772,6.7778,6.7745,6.7808,6.7831,6.7777,6.7808,6.7805,6.7789,6.7806,6.7789,6.7808,6.776,6.7762,6.7789,6.7771,6.7825,6.7763,6.7788,6.7789,6.779,6.7934,6.7964,6.8063,6.7884,6.7886,6.7888,0,6.7849,6.7856,6.7922,6.7907,6.7915,6.7944,6.7951,6.7968,6.7963,6.795,6.7954,6.7919,6.7953,6.7897,6.7943,6.7902,6.791,6.7903,6.7906,6.7906,6.7844,6.7937,6.8093,6.8108,6.7908,6.7907,6.7905,0,6.7961,6.7987,6.8029,6.8031,6.8014,6.8035,6.8029,6.8022,6.803,6.8037,6.8042,6.8052,6.8058,6.8067,6.8036,6.7998,6.8086,6.8027,6.8075,6.8076,6.8095,6.8094,6.8255,6.8103,6.8103,6.8102,6.8102,0,6.808,6.8123,6.8079,6.8105,6.8151,6.8113,6.8159,6.8148,6.8142,6.8165,6.8119,6.8142,6.81,6.8119,6.8095,6.8137,6.814,6.8129,6.8122,6.8133,6.8134,6.8137,6.8129,6.8106,6.8105,6.8105,6.8104,0,6.8212,6.8184,6.8227,6.8209,6.8205,6.824,6.8223,6.8247,6.8229,6.8258,6.8263,6.8234,6.8254,6.8224,6.8241,6.8225,6.8282,6.8265,6.8284,6.8278,6.8328,6.8323,6.8495,6.8515,6.8351,6.8353,6.8354,0,6.8289,6.8321,6.8306,6.8318,6.8315,6.8335,6.8343,6.8307,6.8318,6.8315,6.8339,6.8355,6.8366,6.84,6.838,6.8393,6.8375,6.8434,6.8377,6.8386,6.8375,6.8373,6.8376,6.8446,6.8448,6.8449,6.8451,0,6.843,6.8415,6.8429,6.8439,6.8451,6.8456,6.8459,6.8472,6.8433,6.8448,6.8467,6.8476,6.8492,6.8509,6.8516,6.851,6.8474,6.8469,6.8481,6.8491,6.8501,6.8496,6.8315,6.8465,6.8464,6.8463,6.8462,6.8461,6.8536,6.8562,6.8555,6.8572,6.857,6.8574,6.8595,6.858,6.8595,6.8606,6.8584,6.8609,6.8604,6.861,6.8609,6.8628,6.8602,6.8619,6.8623,6.8628,6.8635,6.8499,6.8629,6.8629,6.8628,6.8628,6.8628,0,6.8674,6.8667,6.8683,6.8688,6.8702,6.8668,6.8669,6.8683,6.8705,6.8704,6.8715,6.8738,6.8754,6.8736,6.8749,6.8768,6.8751,6.8772,6.877,6.8769,6.8658,6.8646,6.8785,6.8785,6.8785,6.8785,6.8785,6.8785,6.8747,6.8788,6.8772,6.8812,6.8805,6.8829,6.8833,6.8836,6.8834,6.8862,6.8875,6.8863,6.8855,6.8867,6.888,6.8874,6.8881,6.8907,6.8896,6.8792,6.8777,6.8762,6.8751,6.8909,6.8909,6.9005,6.9006,6.9007]}]]